WAT1878 KFRG-KSGJ

Flight info

Callsign WAT1878
Flight time 2h 31m
Altitude 38000
Route WAVEY EMJAY Q167 ZJAAY KALDA Q97 ELMSZ Q135 PELIE Q85 IGARY BASLE HOTAR1
Aircraft E35L/M-SDFGIRWXY/SB1

Departure

Time 2026-05-08 15:49
Airport Republic Airport (KFRG)

Arrival

Time 2026-05-08 18:20
Airport Northeast Florida Regional Airport (KSGJ)
Time Latitude Longitude Altitude Speed Heading
2026-05-08 15:00 40.72320 -73.41689 68 ft 0 kts 107°
2026-05-08 15:38 40.72319 -73.41677 68 ft 0 kts 81°
2026-05-08 15:38 40.72333 -73.41660 68 ft 4 kts 27°
2026-05-08 15:39 40.72355 -73.41619 67 ft 8 kts 94°
2026-05-08 15:39 40.72351 -73.41580 67 ft 0 kts 98°
2026-05-08 15:39 40.72351 -73.41577 67 ft 1 kts 98°
2026-05-08 15:40 40.72350 -73.41565 67 ft 1 kts 95°
2026-05-08 15:40 40.72329 -73.41539 67 ft 8 kts 169°
2026-05-08 15:40 40.72252 -73.41535 67 ft 13 kts 180°
2026-05-08 15:40 40.72188 -73.41484 66 ft 14 kts 90°
2026-05-08 15:41 40.72189 -73.41349 66 ft 13 kts 88°
2026-05-08 15:41 40.72250 -73.41318 66 ft 12 kts 358°
2026-05-08 15:41 40.72320 -73.41320 66 ft 7 kts 360°
2026-05-08 15:41 40.72385 -73.41321 67 ft 9 kts 359°
2026-05-08 15:42 40.72461 -73.41322 67 ft 11 kts 359°
2026-05-08 15:42 40.72527 -73.41325 68 ft 10 kts 359°
2026-05-08 15:42 40.72597 -73.41326 69 ft 10 kts 359°
2026-05-08 15:42 40.72671 -73.41328 70 ft 9 kts 360°
2026-05-08 15:43 40.72715 -73.41318 70 ft 3 kts 70°
2026-05-08 15:43 40.72693 -73.41272 69 ft 8 kts 133°
2026-05-08 15:43 40.72644 -73.41200 69 ft 12 kts 132°
2026-05-08 15:43 40.72591 -73.41125 68 ft 8 kts 131°
2026-05-08 15:44 40.72541 -73.41054 67 ft 13 kts 134°
2026-05-08 15:44 40.72473 -73.40955 65 ft 11 kts 131°
2026-05-08 15:44 40.72412 -73.40865 65 ft 14 kts 133°
2026-05-08 15:44 40.72339 -73.40759 64 ft 16 kts 133°
2026-05-08 15:45 40.72270 -73.40659 63 ft 15 kts 132°
2026-05-08 15:45 40.72193 -73.40550 63 ft 16 kts 133°
2026-05-08 15:45 40.72138 -73.40462 62 ft 4 kts 105°
2026-05-08 15:45 40.72146 -73.40437 62 ft 0 kts 47°
2026-05-08 15:46 40.72148 -73.40434 62 ft 1 kts 46°
2026-05-08 15:46 40.72167 -73.40409 62 ft 5 kts 44°
2026-05-08 15:47 40.72188 -73.40384 62 ft 0 kts 38°
2026-05-08 15:47 40.72204 -73.40372 62 ft 4 kts 17°
2026-05-08 15:47 40.72229 -73.40389 62 ft 0 kts 314°
2026-05-08 15:48 40.72244 -73.40410 62 ft 23 kts 313°
2026-05-08 15:48 40.72537 -73.40832 65 ft 96 kts 312°
2026-05-08 15:48 40.73106 -73.41660 238 ft 137 kts 310°
2026-05-08 15:49 40.73871 -73.42421 942 ft 145 kts 340°
2026-05-08 15:49 40.74876 -73.42568 1717 ft 154 kts 356°
2026-05-08 15:49 40.76006 -73.42500 2367 ft 171 kts
2026-05-08 15:49 40.77238 -73.42461 3005 ft 182 kts
2026-05-08 15:50 40.78379 -73.42535 3928 ft 162 kts 329°
2026-05-08 15:50 40.79044 -73.43613 4654 ft 158 kts 289°
2026-05-08 15:50 40.79081 -73.44904 5793 ft 134 kts 270°
2026-05-08 15:50 40.78618 -73.46197 5870 ft 191 kts 231°
2026-05-08 15:51 40.77287 -73.46959 6221 ft 234 kts 192°
2026-05-08 15:51 40.75576 -73.46587 6866 ft 262 kts 168°
2026-05-08 15:51 40.73898 -73.45866 7953 ft 255 kts 168°
2026-05-08 15:51 40.72135 -73.45107 8420 ft 275 kts 168°
2026-05-08 15:52 40.70269 -73.44305 9101 ft 283 kts 169°
2026-05-08 15:52 40.68367 -73.43774 9960 ft 281 kts 177°
2026-05-08 15:52 40.66459 -73.43331 10787 ft 282 kts 176°
2026-05-08 15:52 40.64507 -73.42864 11537 ft 287 kts 177°
2026-05-08 15:53 40.62523 -73.42370 12327 ft 290 kts 176°
2026-05-08 15:53 40.60533 -73.41864 13053 ft 295 kts 177°
2026-05-08 15:53 40.58516 -73.41328 13821 ft 297 kts 177°
2026-05-08 15:53 40.56487 -73.40773 14550 ft 300 kts 177°
2026-05-08 15:54 40.54464 -73.40200 15264 ft 303 kts 176°
2026-05-08 15:54 40.52380 -73.39601 15979 ft 307 kts 177°
2026-05-08 15:54 40.50271 -73.38966 16680 ft 310 kts 176°
2026-05-08 15:54 40.48164 -73.38330 17306 ft 314 kts 177°
2026-05-08 15:55 40.46040 -73.37675 17958 ft 317 kts 177°
2026-05-08 15:55 40.41696 -73.36588 19220 ft 306 kts 195°
2026-05-08 15:55 40.39623 -73.36893 19823 ft 304 kts 199°
2026-05-08 15:56 40.37500 -73.37231 20219 ft 316 kts 199°
2026-05-08 15:56 40.35215 -73.37601 20217 ft 340 kts 198°
2026-05-08 15:56 40.32776 -73.37991 20266 ft 360 kts 197°
2026-05-08 15:56 40.30275 -73.38380 20736 ft 365 kts 197°
2026-05-08 15:57 40.27774 -73.38766 21381 ft 364 kts 198°
2026-05-08 15:57 40.25227 -73.39162 21890 ft 367 kts 198°
2026-05-08 15:57 40.22678 -73.39488 22403 ft 377 kts 192°
2026-05-08 15:57 40.20015 -73.38858 22870 ft 407 kts 170°
2026-05-08 15:58 40.17496 -73.36955 23280 ft 434 kts 148°
2026-05-08 15:58 40.15470 -73.33911 23724 ft 454 kts 127°
2026-05-08 15:58 40.13686 -73.30501 24116 ft 450 kts 139°
2026-05-08 15:58 40.11333 -73.28016 24546 ft 431 kts 161°
2026-05-08 15:59 40.08580 -73.26719 24998 ft 405 kts 182°
2026-05-08 15:59 40.05842 -73.26547 25451 ft 388 kts 195°
2026-05-08 15:59 40.03216 -73.27026 26009 ft 373 kts 206°
2026-05-08 15:59 40.00814 -73.28088 26617 ft 355 kts 217°
2026-05-08 16:00 39.98747 -73.29635 27210 ft 339 kts 227°
2026-05-08 16:00 39.97010 -73.31642 27792 ft 325 kts 237°
2026-05-08 16:00 39.95719 -73.33955 28398 ft 313 kts 248°
2026-05-08 16:00 39.94867 -73.36499 28944 ft 305 kts 256°
2026-05-08 16:01 39.94162 -73.39103 29515 ft 304 kts 256°
2026-05-08 16:01 39.93463 -73.41663 30041 ft 304 kts 255°
2026-05-08 16:01 39.92494 -73.44130 30585 ft 310 kts 244°
2026-05-08 16:01 39.91090 -73.46310 31061 ft 320 kts 234°
2026-05-08 16:02 39.89437 -73.48283 31549 ft 321 kts 232°
2026-05-08 16:02 39.87769 -73.50200 32057 ft 320 kts 232°
2026-05-08 16:02 39.86098 -73.52084 32521 ft 320 kts 232°
2026-05-08 16:02 39.84404 -73.53978 32981 ft 319 kts 232°
2026-05-08 16:03 39.82723 -73.55856 33403 ft 318 kts 232°
2026-05-08 16:03 39.81067 -73.57703 33870 ft 315 kts 232°
2026-05-08 16:03 39.79403 -73.59556 34230 ft 314 kts 232°
2026-05-08 16:03 39.77742 -73.61405 34554 ft 315 kts 232°
2026-05-08 16:04 39.76080 -73.63252 34883 ft 315 kts 232°
2026-05-08 16:04 39.74408 -73.65111 35220 ft 315 kts 231°
2026-05-08 16:04 39.72740 -73.66963 35491 ft 317 kts 231°
2026-05-08 16:04 39.71053 -73.68835 35811 ft 318 kts 231°
2026-05-08 16:05 39.69478 -73.70580 36146 ft 317 kts 231°
2026-05-08 16:05 39.67735 -73.72511 36511 ft 316 kts 231°
2026-05-08 16:05 39.66060 -73.74367 36760 ft 318 kts 231°
2026-05-08 16:05 39.64388 -73.76218 36982 ft 320 kts 231°
2026-05-08 16:06 39.62696 -73.78088 37235 ft 321 kts 231°
2026-05-08 16:06 39.60992 -73.79971 37505 ft 321 kts 231°
2026-05-08 16:06 39.59298 -73.81841 37778 ft 321 kts 231°
2026-05-08 16:06 39.57591 -73.83726 37995 ft 323 kts 231°
2026-05-08 16:07 39.54087 -73.87592 38017 ft 335 kts 230°
2026-05-08 16:07 39.50487 -73.91553 38020 ft 343 kts 230°
2026-05-08 16:08 39.46819 -73.95586 38016 ft 350 kts 230°
2026-05-08 16:08 39.43071 -73.99700 38025 ft 357 kts 230°
2026-05-08 16:09 39.39906 -74.03168 38026 ft 362 kts 230°
2026-05-08 16:09 39.35368 -74.08129 38005 ft 369 kts 230°
2026-05-08 16:10 39.31411 -74.12450 38010 ft 374 kts 230°
2026-05-08 16:10 39.27416 -74.16803 38030 ft 379 kts 230°
2026-05-08 16:11 39.23362 -74.21215 38020 ft 383 kts 230°
2026-05-08 16:11 39.19280 -74.25650 38021 ft 387 kts 230°
2026-05-08 16:12 39.15144 -74.30136 38025 ft 390 kts 230°
2026-05-08 16:12 39.10976 -74.34650 38020 ft 393 kts 230°
2026-05-08 16:13 39.06782 -74.39185 38034 ft 396 kts 230°
2026-05-08 16:13 39.02544 -74.43760 38016 ft 398 kts 230°
2026-05-08 16:14 38.98288 -74.48347 38021 ft 400 kts 230°
2026-05-08 16:14 38.94049 -74.52910 38028 ft 401 kts 230°
2026-05-08 16:15 38.89957 -74.57704 38023 ft 400 kts 232°
2026-05-08 16:15 38.85829 -74.62543 38018 ft 400 kts 232°
2026-05-08 16:16 38.81730 -74.67336 38040 ft 401 kts 232°
2026-05-08 16:16 38.77617 -74.72136 38043 ft 402 kts 232°
2026-05-08 16:17 38.74140 -74.76128 38042 ft 407 kts 229°
2026-05-08 16:17 38.69007 -74.81434 38037 ft 408 kts 229°
2026-05-08 16:18 38.64600 -74.86021 38040 ft 408 kts 229°
2026-05-08 16:18 38.60204 -74.90591 38037 ft 408 kts 229°
2026-05-08 16:19 38.55811 -74.95151 38045 ft 407 kts 229°
2026-05-08 16:19 38.51463 -74.99758 38033 ft 403 kts 231°
2026-05-08 16:20 38.47234 -75.04499 38042 ft 404 kts 231°
2026-05-08 16:20 38.42728 -75.08889 38050 ft 409 kts 227°
2026-05-08 16:21 38.38187 -75.13187 38056 ft 407 kts 227°
2026-05-08 16:21 38.33635 -75.17509 38061 ft 407 kts 227°
2026-05-08 16:22 38.29101 -75.21806 38059 ft 407 kts 227°
2026-05-08 16:22 38.24581 -75.26084 38053 ft 406 kts 227°
2026-05-08 16:23 38.20061 -75.30353 38056 ft 405 kts 228°
2026-05-08 16:23 38.15554 -75.34606 38051 ft 404 kts 228°
2026-05-08 16:24 38.11035 -75.38863 38060 ft 404 kts 228°
2026-05-08 16:24 38.06517 -75.43112 38056 ft 403 kts 228°
2026-05-08 16:25 38.01929 -75.47208 38058 ft 405 kts 226°
2026-05-08 16:25 37.97304 -75.51238 38056 ft 405 kts 226°
2026-05-08 16:26 37.92675 -75.55270 38063 ft 404 kts 226°
2026-05-08 16:26 37.88042 -75.59300 38046 ft 404 kts 226°
2026-05-08 16:27 37.83414 -75.63287 38068 ft 407 kts 224°
2026-05-08 16:27 37.78505 -75.66938 38072 ft 409 kts 223°
2026-05-08 16:28 37.73729 -75.70528 38083 ft 409 kts 223°
2026-05-08 16:28 37.68767 -75.74255 38082 ft 410 kts 223°
2026-05-08 16:29 37.63892 -75.77913 38086 ft 410 kts 223°
2026-05-08 16:29 37.58984 -75.81589 38088 ft 410 kts 223°
2026-05-08 16:30 37.54095 -75.85247 38075 ft 409 kts 223°
2026-05-08 16:30 37.49498 -75.89204 38085 ft 401 kts 227°
2026-05-08 16:31 37.44915 -75.93297 38075 ft 402 kts 227°
2026-05-08 16:31 37.40384 -75.97317 38074 ft 401 kts 228°
2026-05-08 16:32 37.35822 -76.01358 38074 ft 400 kts 227°
2026-05-08 16:32 37.31254 -76.05396 38066 ft 400 kts 228°
2026-05-08 16:33 37.26721 -76.09398 38061 ft 400 kts 228°
2026-05-08 16:33 37.22197 -76.13385 38067 ft 398 kts 228°
2026-05-08 16:34 37.17691 -76.17351 38077 ft 396 kts 228°
2026-05-08 16:34 37.13344 -76.21170 38086 ft 392 kts 229°
2026-05-08 16:35 37.08914 -76.25058 38080 ft 389 kts 229°
2026-05-08 16:35 37.04539 -76.28891 38087 ft 384 kts 228°
2026-05-08 16:36 37.00220 -76.32671 38088 ft 378 kts 229°
2026-05-08 16:36 36.95958 -76.36395 38087 ft 372 kts 229°
2026-05-08 16:37 36.91727 -76.40087 38076 ft 367 kts 229°
2026-05-08 16:37 36.87972 -76.43360 38080 ft 363 kts 229°
2026-05-08 16:38 36.83717 -76.47063 38078 ft 358 kts 230°
2026-05-08 16:38 36.79647 -76.50601 38078 ft 354 kts 230°
2026-05-08 16:39 36.75616 -76.54100 38081 ft 349 kts 230°
2026-05-08 16:39 36.71647 -76.57540 38080 ft 346 kts 230°
2026-05-08 16:40 36.67712 -76.60948 38084 ft 343 kts 230°
2026-05-08 16:40 36.63803 -76.64329 38081 ft 340 kts 230°
2026-05-08 16:41 36.59972 -76.67637 38101 ft 338 kts 231°
2026-05-08 16:42 36.54154 -76.72654 38101 ft 338 kts 231°
2026-05-08 16:42 36.50320 -76.75955 38098 ft 337 kts 231°
2026-05-08 16:43 36.46472 -76.79265 38102 ft 337 kts 230°
2026-05-08 16:43 36.42605 -76.82586 38094 ft 336 kts 231°
2026-05-08 16:44 36.38767 -76.85878 38101 ft 335 kts 231°
2026-05-08 16:44 36.34958 -76.89182 38091 ft 334 kts 232°
2026-05-08 16:45 36.31176 -76.92493 38098 ft 333 kts 232°
2026-05-08 16:45 36.27390 -76.95799 38089 ft 332 kts 232°
2026-05-08 16:46 36.23634 -76.99078 38099 ft 331 kts 231°
2026-05-08 16:46 36.19860 -77.02366 38089 ft 331 kts 232°
2026-05-08 16:47 36.16103 -77.05638 38100 ft 329 kts 231°
2026-05-08 16:47 36.12359 -77.08893 38095 ft 329 kts 231°
2026-05-08 16:48 36.08632 -77.12131 38098 ft 328 kts 232°
2026-05-08 16:48 36.04900 -77.15369 38088 ft 327 kts 232°
2026-05-08 16:49 36.01188 -77.18584 38086 ft 326 kts 232°
2026-05-08 16:49 35.97485 -77.21790 38105 ft 325 kts 232°
2026-05-08 16:50 35.93770 -77.25002 38099 ft 324 kts 232°
2026-05-08 16:50 35.90233 -77.28308 38090 ft 318 kts 235°
2026-05-08 16:51 35.86787 -77.31647 38098 ft 317 kts 236°
2026-05-08 16:51 35.83299 -77.35018 38096 ft 316 kts 234°
2026-05-08 16:52 35.79842 -77.38350 38090 ft 315 kts 235°
2026-05-08 16:52 35.76389 -77.41674 38091 ft 314 kts 235°
2026-05-08 16:53 35.71225 -77.46640 38078 ft 313 kts 235°
2026-05-08 16:53 35.67799 -77.49931 38080 ft 313 kts 234°
2026-05-08 16:54 35.64389 -77.53201 38082 ft 312 kts 235°
2026-05-08 16:54 35.60958 -77.56489 38073 ft 311 kts 235°
2026-05-08 16:55 35.57544 -77.59757 38084 ft 310 kts 236°
2026-05-08 16:55 35.54158 -77.62994 38081 ft 309 kts 236°
2026-05-08 16:56 35.50776 -77.66224 38109 ft 309 kts 234°
2026-05-08 16:56 35.47383 -77.69461 38104 ft 311 kts 234°
2026-05-08 16:57 35.43939 -77.72742 38114 ft 313 kts 234°
2026-05-08 16:57 35.40518 -77.75999 38108 ft 314 kts 234°
2026-05-08 16:58 35.37048 -77.79298 38115 ft 315 kts 234°
2026-05-08 16:58 35.33594 -77.82577 38101 ft 316 kts 234°
2026-05-08 16:59 35.30107 -77.85885 38111 ft 317 kts 234°
2026-05-08 16:59 35.26608 -77.89201 38104 ft 318 kts 234°
2026-05-08 17:00 35.23095 -77.92526 38106 ft 318 kts 234°
2026-05-08 17:00 35.19612 -77.95818 38115 ft 319 kts 234°
2026-05-08 17:01 35.16098 -77.99137 38122 ft 319 kts 234°
2026-05-08 17:01 35.12574 -78.02460 38113 ft 320 kts 233°
2026-05-08 17:02 35.09045 -78.05785 38087 ft 320 kts 233°
2026-05-08 17:02 35.05529 -78.09095 38104 ft 320 kts 234°
2026-05-08 17:03 35.02013 -78.12399 38091 ft 320 kts 234°
2026-05-08 17:03 34.98496 -78.15702 38092 ft 320 kts 234°
2026-05-08 17:04 34.94945 -78.19035 38087 ft 321 kts 233°
2026-05-08 17:04 34.91408 -78.22349 38095 ft 322 kts 233°
2026-05-08 17:05 34.87866 -78.25665 38089 ft 323 kts 233°
2026-05-08 17:05 34.84281 -78.29015 38088 ft 323 kts 233°
2026-05-08 17:06 34.80709 -78.32349 38082 ft 325 kts 234°
2026-05-08 17:06 34.77118 -78.35699 38082 ft 325 kts 233°
2026-05-08 17:07 34.73536 -78.39038 38090 ft 325 kts 233°
2026-05-08 17:07 34.69939 -78.42384 38089 ft 326 kts 233°
2026-05-08 17:08 34.66328 -78.45742 38091 ft 326 kts 234°
2026-05-08 17:08 34.62720 -78.49091 38087 ft 326 kts 234°
2026-05-08 17:09 34.59123 -78.52428 38084 ft 326 kts 234°
2026-05-08 17:09 34.55508 -78.55777 38086 ft 326 kts 234°
2026-05-08 17:10 34.51914 -78.59103 38083 ft 326 kts 233°
2026-05-08 17:10 34.48309 -78.62436 38090 ft 326 kts 234°
2026-05-08 17:11 34.44701 -78.65768 38109 ft 325 kts 233°
2026-05-08 17:11 34.41103 -78.69087 38102 ft 328 kts 233°
2026-05-08 17:12 34.37321 -78.72317 38109 ft 334 kts 231°
2026-05-08 17:12 34.33478 -78.75520 38109 ft 336 kts 230°
2026-05-08 17:13 34.29610 -78.78745 38110 ft 338 kts 230°
2026-05-08 17:13 34.25735 -78.81973 38103 ft 340 kts 230°
2026-05-08 17:14 34.21827 -78.85225 38102 ft 341 kts 230°
2026-05-08 17:14 34.17925 -78.88469 38103 ft 341 kts 230°
2026-05-08 17:15 34.14027 -78.91712 38098 ft 342 kts 230°
2026-05-08 17:15 34.10081 -78.94990 38091 ft 343 kts 230°
2026-05-08 17:16 34.06130 -78.98269 38099 ft 344 kts 230°
2026-05-08 17:16 34.02195 -79.01531 38100 ft 344 kts 230°
2026-05-08 17:17 33.98233 -79.04812 38093 ft 345 kts 230°
2026-05-08 17:17 33.94271 -79.08088 38095 ft 345 kts 230°
2026-05-08 17:18 33.90318 -79.11354 38099 ft 346 kts 230°
2026-05-08 17:18 33.86365 -79.14616 38097 ft 346 kts 230°
2026-05-08 17:19 33.82391 -79.17891 38093 ft 346 kts 230°
2026-05-08 17:19 33.78412 -79.21167 38093 ft 346 kts 230°
2026-05-08 17:20 33.74431 -79.24441 38093 ft 347 kts 230°
2026-05-08 17:20 33.70438 -79.27720 38089 ft 347 kts 230°
2026-05-08 17:21 33.66741 -79.31230 38091 ft 326 kts 242°
2026-05-08 17:21 33.63829 -79.35358 38087 ft 324 kts 242°
2026-05-08 17:22 33.60912 -79.39444 38083 ft 324 kts 242°
2026-05-08 17:22 33.57961 -79.43562 38085 ft 324 kts 242°
2026-05-08 17:23 33.55016 -79.47669 38074 ft 324 kts 242°
2026-05-08 17:23 33.52078 -79.51759 38087 ft 324 kts 242°
2026-05-08 17:24 33.49131 -79.55859 38082 ft 324 kts 242°
2026-05-08 17:24 33.46208 -79.59918 38078 ft 323 kts 242°
2026-05-08 17:25 33.43263 -79.64005 38076 ft 323 kts 242°
2026-05-08 17:25 33.40342 -79.68054 38106 ft 324 kts 242°
2026-05-08 17:26 33.37389 -79.72142 38105 ft 325 kts 241°
2026-05-08 17:26 33.34031 -79.75942 38115 ft 349 kts 229°
2026-05-08 17:27 33.29987 -79.79190 38098 ft 350 kts 229°
2026-05-08 17:27 33.25980 -79.82461 38106 ft 351 kts 229°
2026-05-08 17:28 33.21949 -79.85754 38100 ft 351 kts 229°
2026-05-08 17:28 33.17917 -79.89043 38093 ft 352 kts 229°
2026-05-08 17:29 33.13868 -79.92345 38105 ft 353 kts 229°
2026-05-08 17:29 33.09817 -79.95643 38096 ft 353 kts 229°
2026-05-08 17:30 33.05757 -79.98946 38104 ft 354 kts 229°
2026-05-08 17:30 33.01691 -80.02249 38094 ft 354 kts 229°
2026-05-08 17:31 32.97636 -80.05540 38097 ft 354 kts 229°
2026-05-08 17:31 32.93570 -80.08836 38102 ft 355 kts 229°
2026-05-08 17:32 32.89491 -80.12138 38096 ft 355 kts 228°
2026-05-08 17:32 32.85439 -80.15416 38090 ft 355 kts 228°
2026-05-08 17:33 32.81357 -80.18713 38090 ft 355 kts 228°
2026-05-08 17:33 32.77266 -80.22014 38087 ft 355 kts 228°
2026-05-08 17:34 32.73168 -80.25318 38083 ft 355 kts 228°
2026-05-08 17:34 32.69202 -80.28510 38081 ft 354 kts 228°
2026-05-08 17:35 32.65143 -80.31775 38075 ft 354 kts 229°
2026-05-08 17:35 32.61071 -80.35046 38074 ft 354 kts 228°
2026-05-08 17:36 32.57144 -80.38229 38068 ft 349 kts 231°
2026-05-08 17:36 32.53367 -80.41806 38071 ft 347 kts 232°
2026-05-08 17:37 32.49589 -80.45342 38072 ft 346 kts 232°
2026-05-08 17:37 32.45793 -80.48882 38068 ft 346 kts 231°
2026-05-08 17:38 32.42000 -80.52415 38073 ft 345 kts 231°
2026-05-08 17:38 32.38237 -80.55917 38076 ft 345 kts 232°
2026-05-08 17:39 32.34472 -80.59415 38070 ft 344 kts 231°
2026-05-08 17:39 32.30708 -80.62910 38066 ft 344 kts 232°
2026-05-08 17:40 32.26971 -80.66375 38101 ft 344 kts 231°
2026-05-08 17:40 32.23257 -80.69817 38090 ft 346 kts 231°
2026-05-08 17:41 32.19478 -80.73331 38096 ft 346 kts 231°
2026-05-08 17:41 32.15682 -80.76894 38076 ft 348 kts 231°
2026-05-08 17:42 32.11908 -80.80480 38082 ft 348 kts 231°
2026-05-08 17:42 32.08145 -80.84087 38080 ft 349 kts 231°
2026-05-08 17:43 32.04380 -80.87688 38072 ft 350 kts 232°
2026-05-08 17:43 32.02485 -80.89496 37851 ft 356 kts 231°
2026-05-08 17:43 32.00569 -80.91359 37265 ft 352 kts 231°
2026-05-08 17:44 31.98552 -80.92962 36692 ft 357 kts 221°
2026-05-08 17:44 31.96223 -80.94112 36110 ft 365 kts 211°
2026-05-08 17:44 31.93698 -80.94727 35543 ft 376 kts 201°
2026-05-08 17:44 31.91055 -80.94785 34980 ft 387 kts 190°
2026-05-08 17:45 31.88620 -80.94341 34475 ft 397 kts 180°
2026-05-08 17:45 31.86204 -80.93564 33965 ft 395 kts 178°
2026-05-08 17:45 31.83350 -80.92625 33348 ft 389 kts 179°
2026-05-08 17:45 31.80768 -80.91777 32827 ft 383 kts 178°
2026-05-08 17:46 31.78197 -80.90932 32319 ft 378 kts 178°
2026-05-08 17:46 31.75672 -80.90111 31821 ft 371 kts 180°
2026-05-08 17:46 31.73182 -80.89639 31322 ft 350 kts 191°
2026-05-08 17:46 31.70832 -80.89729 30836 ft 328 kts 203°
2026-05-08 17:47 31.68671 -80.90345 30343 ft 306 kts 214°
2026-05-08 17:47 31.66665 -80.91156 29854 ft 306 kts 211°
2026-05-08 17:47 31.64608 -80.91861 29346 ft 306 kts 210°
2026-05-08 17:47 31.63221 -80.92307 29008 ft 305 kts 209°
2026-05-08 17:48 31.60475 -80.93159 28340 ft 303 kts 208°
2026-05-08 17:48 31.58408 -80.93785 27831 ft 302 kts 208°
2026-05-08 17:48 31.56379 -80.94398 27330 ft 300 kts 208°
2026-05-08 17:48 31.54342 -80.95010 26823 ft 298 kts 207°
2026-05-08 17:49 31.52321 -80.95616 26321 ft 297 kts 207°
2026-05-08 17:49 31.50319 -80.96215 25820 ft 296 kts 207°
2026-05-08 17:49 31.48278 -80.96827 25314 ft 294 kts 207°
2026-05-08 17:49 31.46288 -80.97422 24816 ft 293 kts 207°
2026-05-08 17:50 31.44302 -80.98016 24319 ft 292 kts 207°
2026-05-08 17:50 31.42328 -80.98606 23825 ft 291 kts 206°
2026-05-08 17:50 31.40347 -80.99198 23332 ft 290 kts 206°
2026-05-08 17:50 31.38392 -80.99782 22849 ft 290 kts 206°
2026-05-08 17:51 31.36451 -81.00362 22372 ft 289 kts 206°
2026-05-08 17:51 31.34507 -81.00942 21895 ft 288 kts 206°
2026-05-08 17:51 31.32583 -81.01516 21423 ft 288 kts 206°
2026-05-08 17:51 31.30638 -81.02096 20942 ft 287 kts 206°
2026-05-08 17:52 31.28702 -81.02673 20464 ft 287 kts 206°
2026-05-08 17:52 31.26763 -81.03251 19985 ft 286 kts 205°
2026-05-08 17:52 31.22890 -81.04404 19013 ft 285 kts 205°
2026-05-08 17:53 31.20973 -81.04967 18538 ft 287 kts 203°
2026-05-08 17:53 31.18945 -81.05254 18059 ft 293 kts 196°
2026-05-08 17:53 31.16918 -81.05474 17587 ft 292 kts 196°
2026-05-08 17:53 31.14888 -81.05696 17112 ft 292 kts 196°
2026-05-08 17:54 31.12846 -81.05921 16634 ft 291 kts 196°
2026-05-08 17:54 31.10863 -81.06139 16167 ft 291 kts 196°
2026-05-08 17:54 31.08839 -81.06361 15702 ft 290 kts 195°
2026-05-08 17:54 31.06807 -81.06584 15222 ft 289 kts 195°
2026-05-08 17:55 31.04784 -81.06807 14735 ft 288 kts 195°
2026-05-08 17:55 31.02772 -81.07027 14251 ft 287 kts 195°
2026-05-08 17:55 31.00751 -81.07250 13758 ft 285 kts 195°
2026-05-08 17:55 30.98764 -81.07467 13269 ft 284 kts 195°
2026-05-08 17:56 30.96884 -81.07674 12795 ft 284 kts 194°
2026-05-08 17:56 30.94867 -81.07895 12297 ft 284 kts 194°
2026-05-08 17:56 30.92893 -81.08112 11805 ft 283 kts 194°
2026-05-08 17:56 30.90886 -81.08331 11353 ft 282 kts 194°
2026-05-08 17:57 30.88967 -81.08541 10968 ft 279 kts 194°
2026-05-08 17:57 30.87100 -81.08745 10634 ft 276 kts 193°
2026-05-08 17:57 30.85252 -81.08946 10339 ft 272 kts 193°
2026-05-08 17:57 30.83384 -81.09151 10093 ft 265 kts 193°
2026-05-08 17:58 30.81564 -81.09347 10035 ft 253 kts 194°
2026-05-08 17:58 30.79837 -81.09534 9977 ft 241 kts 194°
2026-05-08 17:58 30.78202 -81.09712 9974 ft 228 kts 194°
2026-05-08 17:58 30.76663 -81.09879 9965 ft 216 kts 195°
2026-05-08 17:59 30.75204 -81.10038 9965 ft 204 kts 195°
2026-05-08 17:59 30.73817 -81.10189 9960 ft 193 kts 195°
2026-05-08 17:59 30.72452 -81.10342 9722 ft 197 kts 195°
2026-05-08 17:59 30.71063 -81.10497 9487 ft 200 kts 195°
2026-05-08 18:00 30.69660 -81.10651 9252 ft 203 kts 195°
2026-05-08 18:00 30.66809 -81.10963 8770 ft 208 kts 194°
2026-05-08 18:00 30.65361 -81.11121 8519 ft 211 kts 193°
2026-05-08 18:01 30.63877 -81.11282 8280 ft 213 kts 193°
2026-05-08 18:01 30.62387 -81.11445 8037 ft 215 kts 192°
2026-05-08 18:01 30.60903 -81.11606 7805 ft 217 kts 193°
2026-05-08 18:01 30.59378 -81.11772 7563 ft 218 kts 192°
2026-05-08 18:02 30.57850 -81.11938 7324 ft 220 kts 192°
2026-05-08 18:02 30.56847 -81.12047 7161 ft 221 kts 192°
2026-05-08 18:02 30.54822 -81.12466 6828 ft 217 kts 204°
2026-05-08 18:02 30.53380 -81.12987 6584 ft 218 kts 203°
2026-05-08 18:03 30.51912 -81.13512 6336 ft 219 kts 203°
2026-05-08 18:03 30.50462 -81.14033 6096 ft 220 kts 202°
2026-05-08 18:03 30.48981 -81.14564 5850 ft 221 kts 202°
2026-05-08 18:03 30.47514 -81.15089 5606 ft 222 kts 202°
2026-05-08 18:04 30.46013 -81.15627 5351 ft 223 kts 201°
2026-05-08 18:04 30.44533 -81.16157 5111 ft 223 kts 201°
2026-05-08 18:04 30.43031 -81.16695 4869 ft 224 kts 201°
2026-05-08 18:04 30.41534 -81.17233 4630 ft 225 kts 201°
2026-05-08 18:05 30.40036 -81.17769 4392 ft 226 kts 201°
2026-05-08 18:05 30.38512 -81.18315 4135 ft 226 kts 200°
2026-05-08 18:05 30.36997 -81.18858 3889 ft 227 kts 200°
2026-05-08 18:05 30.35481 -81.19401 3643 ft 228 kts 200°
2026-05-08 18:06 30.33951 -81.19949 3397 ft 228 kts 200°
2026-05-08 18:06 30.32515 -81.20685 3158 ft 226 kts 217°
2026-05-08 18:06 30.31235 -81.21747 2992 ft 222 kts 218°
2026-05-08 18:06 30.30063 -81.22855 2972 ft 212 kts 223°
2026-05-08 18:07 30.28967 -81.23950 2969 ft 202 kts 223°
2026-05-08 18:07 30.27913 -81.24995 2969 ft 193 kts 223°
2026-05-08 18:07 30.26913 -81.25988 2969 ft 185 kts 223°
2026-05-08 18:07 30.25955 -81.26936 2969 ft 177 kts 223°
2026-05-08 18:08 30.25035 -81.27843 2968 ft 169 kts 223°
2026-05-08 18:08 30.24148 -81.28709 2968 ft 161 kts 223°
2026-05-08 18:08 30.23301 -81.29536 2967 ft 153 kts 223°
2026-05-08 18:08 30.22496 -81.30323 2979 ft 151 kts 223°
2026-05-08 18:09 30.21804 -81.31217 2987 ft 149 kts 243°
2026-05-08 18:09 30.21304 -81.32262 3028 ft 144 kts 244°
2026-05-08 18:09 30.20822 -81.33284 2988 ft 144 kts 244°
2026-05-08 18:09 30.20158 -81.34139 2981 ft 141 kts 222°
2026-05-08 18:10 30.19404 -81.34849 2973 ft 138 kts 223°
2026-05-08 18:10 30.18741 -81.35618 2969 ft 132 kts 241°
2026-05-08 18:10 30.18276 -81.36533 2979 ft 131 kts 243°
2026-05-08 18:10 30.17826 -81.37450 2979 ft 131 kts 244°
2026-05-08 18:11 30.17378 -81.38387 2983 ft 133 kts 244°
2026-05-08 18:11 30.16929 -81.39339 2983 ft 135 kts 244°
2026-05-08 18:11 30.16471 -81.40314 2983 ft 137 kts 245°
2026-05-08 18:11 30.16016 -81.41288 2983 ft 139 kts 244°
2026-05-08 18:12 30.15546 -81.42296 2982 ft 141 kts 244°
2026-05-08 18:12 30.15074 -81.43306 2982 ft 143 kts 245°
2026-05-08 18:12 30.14594 -81.44334 2981 ft 145 kts 244°
2026-05-08 18:12 30.14114 -81.45361 2982 ft 146 kts 244°
2026-05-08 18:13 30.13389 -81.46206 2986 ft 149 kts 219°
2026-05-08 18:13 30.12527 -81.46937 2779 ft 159 kts 219°
2026-05-08 18:13 30.11610 -81.47715 2550 ft 166 kts 218°
2026-05-08 18:13 30.10669 -81.48509 2312 ft 168 kts 218°
2026-05-08 18:14 30.09730 -81.49301 2181 ft 162 kts 218°
2026-05-08 18:14 30.08848 -81.50043 2162 ft 150 kts 218°
2026-05-08 18:14 30.07999 -81.50700 2158 ft 143 kts 202°
2026-05-08 18:14 30.07048 -81.50717 2168 ft 135 kts 157°
2026-05-08 18:15 30.06342 -81.50020 2095 ft 136 kts 125°
2026-05-08 18:15 30.05754 -81.49143 2043 ft 138 kts 126°
2026-05-08 18:15 30.05174 -81.48261 2018 ft 139 kts 126°
2026-05-08 18:15 30.04587 -81.47352 2000 ft 138 kts 124°
2026-05-08 18:16 30.04001 -81.46437 2000 ft 140 kts 125°
2026-05-08 18:16 30.03431 -81.45549 1982 ft 137 kts 124°
2026-05-08 18:16 30.02860 -81.44655 1940 ft 136 kts 125°
2026-05-08 18:16 30.02294 -81.43769 1838 ft 140 kts 124°
2026-05-08 18:17 30.01718 -81.42864 1677 ft 138 kts 124°
2026-05-08 18:17 30.01168 -81.41981 1503 ft 132 kts 121°
2026-05-08 18:17 30.00647 -81.41140 1327 ft 125 kts 123°
2026-05-08 18:17 30.00128 -81.40327 1160 ft 124 kts 124°
2026-05-08 18:18 29.99623 -81.39541 993 ft 121 kts 123°
2026-05-08 18:18 29.99124 -81.38764 830 ft 119 kts 122°
2026-05-08 18:18 29.98638 -81.38007 673 ft 116 kts 122°
2026-05-08 18:18 29.98162 -81.37267 524 ft 114 kts 122°
2026-05-08 18:19 29.97670 -81.36500 387 ft 122 kts 122°
2026-05-08 18:19 29.97154 -81.35698 237 ft 125 kts 122°
2026-05-08 18:19 29.96630 -81.34886 77 ft 127 kts 122°
2026-05-08 18:19 29.96119 -81.34078 12 ft 117 kts 123°
2026-05-08 18:20 29.95730 -81.33477 11 ft 45 kts 130°
2026-05-08 18:20 29.95622 -81.33328 10 ft 14 kts 130°
2026-05-08 18:20 29.95545 -81.33318 10 ft 6 kts 221°
2026-05-08 18:20 29.95524 -81.33379 10 ft 10 kts 289°
2026-05-08 18:21 29.95576 -81.33463 11 ft 14 kts 307°
2026-05-08 18:21 29.95602 -81.33551 11 ft 11 kts 237°
2026-05-08 18:21 29.95553 -81.33648 11 ft 15 kts 239°
2026-05-08 18:21 29.95496 -81.33775 11 ft 20 kts 242°
2026-05-08 18:22 29.95435 -81.33901 11 ft 17 kts 243°
2026-05-08 18:22 29.95399 -81.33975 11 ft 10 kts 235°
2026-05-08 18:22 29.95356 -81.34061 11 ft 9 kts 241°
2026-05-08 18:22 29.95392 -81.34122 11 ft 13 kts 333°
2026-05-08 18:23 29.95435 -81.34190 11 ft 12 kts 301°
2026-05-08 18:23 29.95457 -81.34219 12 ft 0 kts 24°